SCP
2 2 2 1 1 1 0 0 0 0 0 0 0 1 1 1 1 1 1 1 1 2 1 1 1 1 1 0 0 0 0 0 0 1 1 1 1 2 2 3 3 3 3 3 4 4 3 3 2
2 1 1 1 1 1 0 0 0 0 0 1 1 1 1 1 1 1 1 1 2 2 1 1 1 1 1 0 0 0 0 0 0 0 0 1 1 1 2 2 2 2 3 3 3 3 3 2 2
2 1 1 1 1 0 0 0 0 1 1 1 1 1 1 1 1 1 1 1 2 2 2 2 2 1 1 1 1 0 1 0 0 0 0 0 1 1 1 2 2 2 2 2 3 2 2 2 2
2 1 1 1 0 0 0 0 1 1 1 1 1 1 1 1 1 1 1 1 2 2 2 2 2 2 1 1 1 1 1 1 1 1 0 0 0 1 1 1 1 1 1 2 2 2 2 2 2
1 1 1 0 0 0 0 0 1 1 1 1 1 1 1 1 1 1 1 1 3 3 3 3 3 2 2 1 1 1 1 1 1 1 0 0 0 1 1 1 1 1 1 1 1 2 2 2 2
1 1 0 0 1 1 1 1 1 1 1 1 1 1 2 2 2 1 1 2 3 4 4 3 3 3 2 2 1 1 1 1 1 0 1 1 0 1 1 1 1 1 1 1 1 1 1 1 1
1 0 0 0 1 1 1 1 1 1 0 0 1 1 2 2 2 1 1 2 4 5 4 3 3 3 2 2 1 1 1 1 1 1 1 1 1 1 1 1 1 1 1 1 1 1 1 1 1
0 0 0 0 1 1 1 1 1 1 0 0 1 1 2 2 2 1 1 2 4 5 4 4 3 2 2 2 2 1 1 1 1 1 1 1 1 0 1 1 1 1 1 1 1 1 2 2 2
0 0 0 0 1 1 1 1 1 1 1 1 1 1 1 2 1 1 1 2 3 4 4 3 3 2 2 2 1 1 1 1 1 1 1 1 1 0 0 1 1 1 1 1 1 2 2 2 2
0 0 0 1 1 1 1 1 1 1 1 1 1 1 1 1 1 1 2 2 2 3 3 3 2 2 2 2 2 1 1 1 1 1 1 1 1 0 0 1 1 1 1 1 1 2 2 2 2
0 0 0 0 1 1 1 1 1 1 1 1 1 1 1 1 1 2 2 2 2 2 2 2 2 2 2 2 2 2 1 1 1 1 1 1 1 1 0 1 1 1 1 1 1 1 1 1 1
0 0 0 0 0 0 0 1 1 1 1 1 1 1 1 1 1 2 2 2 2 2 2 2 2 2 2 2 2 2 2 2 1 1 1 1 1 1 1 1 1 1 1 1 1 1 0 0 0
0 0 0 0 0 0 0 0 1 1 0 1 1 1 1 1 1 1 2 2 2 2 2 2 2 2 3 3 3 2 2 2 2 1 1 2 2 1 1 1 1 1 1 1 1 0 0 0 0
0 0 0 0 0 0 0 0 0 1 1 1 1 1 1 1 1 1 1 2 2 3 3 3 3 3 3 4 3 2 2 1 1 1 1 2 2 2 1 1 2 1 1 1 1 0 0 0 0
0 0 0 0 0 0 0 0 0 1 1 1 1 1 1 1 1 1 1 1 2 2 2 3 3 3 4 5 4 3 2 1 1 2 2 2 3 2 1 2 2 2 1 1 0 0 0 0 0
0 0 0 0 0 0 0 0 0 1 1 1 1 1 1 1 1 1 1 1 1 1 2 2 2 3 4 5 5 4 3 2 2 2 2 2 2 2 2 2 2 2 1 1 0 0 0 0 0
0 0 0 0 0 0 0 0 0 0 1 1 1 1 2 2 1 1 1 1 1 1 2 2 2 2 3 5 6 5 4 3 2 2 2 2 2 2 2 2 2 2 1 1 1 0 0 0 0
0 0 0 0 0 0 0 0 0 0 0 1 1 1 2 2 1 1 1 1 1 1 2 2 2 1 2 4 5 5 4 3 2 2 2 2 2 2 2 2 3 2 2 1 1 1 1 0 0
0 0 0 0 0 0 0 0 0 0 0 0 1 1 2 2 2 1 1 1 1 1 2 2 2 2 2 3 4 4 3 2 2 2 2 2 2 2 3 3 3 3 2 2 1 1 1 1 0
0 0 0 0 0 0 0 0 0 0 0 0 0 1 2 2 2 1 1 1 1 1 1 2 2 2 2 3 3 3 3 2 3 3 3 2 2 2 3 3 3 3 3 2 2 1 1 1 0
0 0 0 0 0 0 0 0 0 0 0 0 0 1 1 2 2 2 1 1 1 1 2 2 2 2 2 3 3 3 3 3 3 4 3 3 2 2 2 3 3 3 2 2 1 1 1 1 0
0 0 0 0 0 0 0 0 0 0 0 0 0 0 1 2 3 2 1 1 2 3 3 2 2 2 2 2 2 2 2 2 3 3 4 3 3 2 2 2 2 2 2 1 1 1 1 0 0
0 0 0 0 0 0 0 0 0 0 0 0 0 0 0 1 2 2 2 3 4 4 3 2 1 1 1 1 2 2 2 2 2 3 4 4 4 3 3 2 2 1 1 1 1 1 1 0 0
0 0 0 0 0 0 0 0 0 0 0 0 0 0 1 2 2 3 3 5 5 4 2 1 1 1 1 1 1 2 2 2 2 2 3 4 4 4 3 3 2 1 1 1 1 0 0 0 0
0 0 0 0 0 0 0 0 0 0 0 0 1 1 1 2 3 4 5 6 5 3 2 2 1 1 1 1 1 1 2 1 1 2 3 4 4 4 3 3 2 1 1 0 0 0 0 0 0
0 0 0 0 0 0 0 0 0 0 0 0 1 1 1 2 3 5 5 4 3 2 2 2 2 1 1 1 1 1 1 1 1 1 2 3 4 3 3 2 1 1 1 0 0 0 0 0 0
0 0 0 0 0 0 0 0 0 0 0 1 0 0 1 2 3 4 4 3 2 2 2 2 2 1 1 1 1 1 1 1 1 1 2 2 3 3 2 2 1 1 0 0 0 0 0 0 0
0 0 0 0 0 0 0 0 0 0 0 1 1 0 1 1 2 3 3 3 2 2 2 2 2 1 1 1 1 1 1 1 1 1 1 2 2 2 2 1 1 1 1 0 0 0 0 0 0
0 0 0 0 0 0 0 0 0 0 1 1 1 1 0 1 2 3 4 3 2 2 2 2 2 2 1 1 1 1 1 1 1 1 1 1 2 2 2 2 1 1 1 0 0 0 0 0 0
0 0 0 0 0 0 0 0 0 0 1 1 1 0 0 1 2 4 4 4 3 2 2 2 2 2 1 1 1 1 1 1 1 1 1 2 2 3 2 2 1 1 1 0 0 0 0 0 0
Wind_Speed
11 11 7 2 2 1 3 5 7 6 7 9 9 10 13 13 9 7 2 3 6 8 8 9 10 11 11 11 11 11 12 12 12 12 12 12 12 12 11 11 10 10 10 9 9 9 9 9 8
11 7 4 3 2 1 4 5 8 8 7 7 8 10 12 12 10 7 3 4 7 9 9 9 10 11 11 11 11 12 12 12 13 12 12 13 13 12 12 11 10 10 9 9 8 8 9 9 8
12 7 4 2 1 3 6 6 7 8 6 6 7 10 9 7 9 5 3 5 8 10 10 9 10 11 11 11 12 12 12 12 12 12 12 13 13 13 12 12 10 9 9 8 8 8 8 8 8
6 3 3 0 4 6 7 6 5 6 5 6 7 9 9 8 6 6 5 7 9 10 10 9 10 10 11 11 12 12 12 13 12 12 12 12 13 13 13 12 10 9 9 9 9 9 8 8 8
4 3 1 1 4 6 6 5 5 5 4 7 9 10 9 8 8 7 6 7 8 9 9 9 10 10 11 11 12 12 12 12 12 12 12 12 12 12 12 12 12 11 9 9 9 8 8 8 7
3 2 1 2 4 5 4 4 5 6 7 5 9 9 7 7 7 6 6 6 7 8 9 9 10 11 11 11 11 11 11 11 12 11 12 12 12 12 13 12 12 11 10 9 8 8 8 8 8
3 2 1 3 4 4 4 4 5 5 6 4 6 8 7 7 5 5 6 6 6 7 7 7 7 8 9 10 10 9 10 10 10 10 10 10 11 12 12 12 11 10 9 9 9 9 9 9 8
3 2 1 2 3 3 4 5 4 6 5 5 5 7 7 8 6 5 5 5 5 5 5 6 6 6 6 6 7 7 7 7 7 7 7 8 9 10 11 11 11 10 8 8 9 9 9 8 7
3 1 1 2 3 3 5 5 4 5 7 7 8 9 10 10 8 6 4 4 4 4 4 5 5 5 5 5 5 4 4 4 3 3 5 4 3 5 6 9 10 10 10 9 9 8 7 6 5
0 1 2 3 3 3 4 4 3 4 6 6 9 10 10 8 7 6 4 4 4 4 3 4 5 4 4 4 4 2 2 2 1 2 3 2 3 4 6 6 8 8 8 7 7 6 5 4 3
1 1 3 4 4 4 3 3 2 3 4 5 7 9 7 6 5 5 4 4 4 3 2 3 4 4 4 3 2 1 1 1 2 3 4 3 3 3 3 2 2 3 4 3 4 3 2 3 3
2 2 3 3 3 3 2 2 2 3 4 6 7 8 7 5 4 4 4 4 3 3 3 3 4 4 4 3 2 2 2 2 2 2 3 3 2 2 2 2 2 2 2 3 3 3 4 4 4
2 2 3 3 2 2 2 2 1 3 5 5 6 7 6 5 4 3 3 4 4 4 3 3 3 4 4 3 1 3 2 2 2 2 3 4 3 3 3 2 3 3 3 3 3 4 5 5 5
3 2 2 1 1 1 1 2 2 4 5 6 7 6 6 5 4 3 3 3 3 4 4 3 3 3 3 2 2 2 2 2 2 2 3 4 3 3 3 3 3 3 2 3 3 4 4 4 4
4 4 3 3 3 2 1 1 2 5 6 6 6 6 5 4 4 3 3 3 3 4 4 4 3 3 3 3 3 2 2 3 2 2 3 3 3 3 3 3 3 2 3 3 3 4 3 4 4
6 5 4 4 5 4 3 2 3 4 5 5 5 6 4 4 3 2 3 3 3 4 4 4 3 3 3 3 3 2 2 2 2 2 2 3 3 4 3 3 2 3 3 3 3 3 4 4 3
6 4 4 4 4 3 3 2 3 4 4 4 5 6 5 5 4 3 3 3 3 4 4 4 4 3 3 3 2 3 2 2 2 2 2 2 3 4 3 2 2 3 3 3 3 3 3 3 3
3 3 3 3 4 4 4 3 4 5 6 5 5 6 5 5 5 4 4 3 3 3 4 4 4 4 2 1 2 2 2 2 2 2 2 2 2 3 3 2 3 3 3 3 3 3 3 2 2
5 5 3 2 2 3 4 5 5 6 5 5 5 6 6 6 5 5 5 4 3 4 4 4 4 3 2 1 1 1 1 1 2 2 2 2 2 3 2 2 3 2 2 2 3 3 2 2 2
7 6 3 1 2 3 5 6 5 6 7 6 5 6 7 6 5 5 5 4 3 4 3 3 3 3 3 1 1 2 2 2 2 1 2 2 2 3 2 3 2 2 2 2 3 3 2 1 1
7 4 3 3 4 6 6 6 6 6 6 6 5 4 5 7 6 6 6 5 4 3 3 3 3 3 3 3 1 2 2 1 2 2 1 1 2 2 2 2 2 2 2 2 2 2 2 1 1
5 4 4 5 5 4 5 4 6 8 7 6 5 4 3 4 5 5 5 5 4 4 3 3 3 3 3 3 2 2 2 2 2 2 2 1 2 2 1 2 2 2 2 2 2 2 1 1 0
4 5 7 8 8 8 8 7 4 7 7 7 6 5 4 4 4 5 5 5 5 4 3 2 3 3 2 2 3 3 2 2 2 2 3 2 2 1 2 2 2 2 2 2 1 2 1 1 1
5 6 9 9 6 8 8 7 2 3 6 6 6 5 5 4 5 4 4 5 4 4 3 2 3 3 2 2 2 3 3 2 2 2 2 2 1 1 1 2 2 2 1 1 1 1 1 1 1
5 4 3 4 5 5 3 4 1 2 3 4 6 5 4 4 4 4 5 5 4 4 4 2 2 2 2 2 2 2 3 2 2 2 3 2 1 1 1 1 1 1 2 1 1 1 1 1 1
7 7 4 3 3 4 4 4 2 4 4 3 4 5 4 5 5 5 5 4 4 4 4 3 3 2 2 1 1 1 2 1 1 2 2 2 2 2 2 1 1 1 2 2 1 1 0 0 0
5 6 6 7 9 7 4 2 3 3 3 3 3 4 4 4 5 6 5 4 4 4 4 3 3 3 2 1 1 1 2 2 1 1 1 2 2 2 2 2 2 2 2 2 1 1 0 0 0
6 6 4 4 4 6 5 3 2 4 3 3 2 2 3 4 4 5 5 4 4 3 3 3 2 2 2 1 1 1 1 1 1 1 1 2 2 2 3 2 2 2 2 2 1 1 0 0 0
6 6 5 4 5 5 5 1 3 2 2 3 3 3 3 5 5 5 4 4 4 3 3 3 2 2 2 1 1 1 1 1 1 1 1 2 2 2 2 2 2 2 2 2 1 1 1 1 0
5 6 6 5 5 6 5 2 2 3 2 1 2 3 3 4 4 4 5 5 4 4 3 2 2 2 1 1 1 1 0 1 1 1 1 2 2 2 2 2 2 2 2 2 2 1 1 1 1
Wind_Direction
279 258 247 256 257 199 71 70 77 65 62 55 51 60 63 53 52 86 136 89 87 92 88 69 52 52 51 51 53 54 52 50 51 52 52 52 54 59 69 75 77 82 86 87 86 84 89 90 88
283 281 276 247 257 97 79 75 78 71 73 75 61 65 70 68 75 95 102 84 89 88 81 69 59 55 54 54 55 55 54 53 53 54 55 54 54 57 64 69 72 78 84 87 88 89 89 90 91
267 267 264 260 11 69 83 77 84 78 71 75 75 60 58 67 78 95 109 99 90 86 84 76 66 61 58 57 57 56 56 55 56 57 57 57 57 59 61 63 69 75 78 82 86 90 91 90 90
271 260 244 289 56 67 91 97 95 92 75 77 86 76 69 64 82 106 110 94 93 92 90 83 73 69 65 63 62 60 59 56 57 59 61 61 62 62 60 61 67 75 80 83 85 88 88 85 81
246 257 235 105 82 77 80 98 100 92 78 77 87 90 86 79 91 102 96 90 90 96 99 96 86 80 74 69 65 62 61 60 59 61 62 62 62 63 63 61 64 68 77 83 84 85 86 83 76
272 254 230 119 99 94 88 93 97 94 86 93 102 100 95 104 97 94 92 88 90 96 102 109 100 92 83 77 72 68 64 63 63 64 65 64 63 65 66 65 65 65 69 79 84 88 88 86 81
272 282 189 119 99 90 91 69 78 86 79 65 87 101 112 108 101 100 96 89 86 92 104 116 119 108 95 87 80 76 70 68 69 68 69 67 65 66 67 67 66 66 68 75 82 86 87 85 82
291 304 106 106 108 96 93 83 73 79 74 54 69 105 124 127 124 104 92 90 90 89 96 108 115 116 115 106 92 88 81 75 75 71 72 73 71 69 68 66 65 63 66 84 94 97 95 93 91
277 318 32 63 105 102 106 102 83 83 82 68 70 88 115 130 129 118 112 98 88 91 101 110 112 111 114 118 106 106 98 85 80 73 76 84 75 74 69 71 69 64 66 83 97 102 102 104 100
167 62 50 39 68 95 99 99 117 116 99 97 93 97 116 131 130 127 126 117 104 91 87 100 107 112 110 99 109 113 97 98 83 68 77 67 63 69 78 80 75 71 71 84 95 101 102 98 97
114 107 64 49 50 66 84 83 66 105 116 121 119 122 129 129 127 128 122 109 107 107 95 95 108 106 106 99 100 98 74 67 55 56 65 59 60 71 77 78 74 64 69 66 83 93 95 93 92
115 65 57 65 53 52 60 60 71 76 92 113 124 132 135 140 134 125 116 109 106 98 99 96 94 101 99 96 97 93 79 63 52 44 71 64 50 49 58 67 51 52 45 46 52 57 57 65 68
119 109 85 72 66 72 94 102 99 115 119 126 130 133 142 141 134 119 121 132 127 124 107 93 86 91 102 108 112 94 76 78 73 36 54 70 61 59 52 65 61 54 49 51 49 53 52 52 55
124 114 118 136 166 154 131 152 171 151 144 145 144 144 148 147 144 141 146 135 131 124 115 107 107 99 103 108 99 95 101 88 79 59 57 71 67 68 65 58 60 58 57 59 66 66 56 54 54
167 171 178 189 188 174 170 175 166 161 152 159 156 152 152 149 151 164 156 137 140 122 113 105 107 95 88 87 87 88 84 87 75 62 61 64 68 68 66 60 59 57 58 61 65 67 65 67 63
205 195 199 184 186 193 225 223 153 143 169 169 168 159 159 157 162 164 145 147 140 121 116 110 97 94 87 81 75 79 80 78 74 61 57 61 69 72 69 61 57 55 58 61 66 64 62 56 57
214 211 197 179 192 195 219 229 179 177 191 182 179 167 169 169 170 168 150 142 131 122 118 115 97 83 77 85 86 73 75 76 73 65 51 57 67 73 76 67 66 60 55 57 65 60 67 69 68
262 253 224 210 189 219 226 225 199 195 197 191 192 178 170 171 172 164 156 141 134 128 118 112 104 94 89 99 95 85 75 77 76 76 64 55 73 75 76 80 71 69 65 62 69 69 61 68 72
277 262 239 236 205 235 242 232 217 204 196 192 193 176 171 172 171 160 145 133 135 131 124 123 120 121 113 100 104 108 108 105 91 86 82 67 72 84 85 81 77 79 81 84 79 78 66 53 61
270 270 249 245 271 265 248 247 222 200 192 186 194 188 175 171 169 159 146 142 138 127 125 137 135 132 119 100 126 131 124 124 116 107 97 84 73 77 82 98 90 87 83 77 75 71 67 34 60
270 281 285 284 279 259 251 245 219 194 187 178 185 189 178 168 167 165 157 149 145 138 142 129 126 120 123 122 112 111 101 92 96 97 88 90 93 84 74 78 99 111 105 100 95 89 79 58 3
274 309 293 266 261 257 243 259 215 195 185 182 180 179 182 165 160 161 155 152 149 143 139 134 127 122 127 134 130 133 138 147 157 139 132 126 111 109 103 88 90 90 96 105 122 117 105 103 41
290 298 278 262 258 265 252 256 220 180 185 185 184 177 177 170 163 153 155 150 147 144 140 143 136 135 128 123 135 145 134 140 140 130 134 141 125 115 107 99 90 90 95 100 85 101 94 85 88
271 273 268 249 247 251 237 242 228 184 186 180 177 179 167 163 151 145 145 135 138 137 138 142 134 138 131 120 142 156 146 145 139 142 145 145 138 147 129 121 108 99 99 94 87 99 109 111 83
258 263 271 237 218 242 233 236 194 124 131 155 164 169 159 143 139 140 138 137 136 139 143 148 140 130 127 149 165 152 151 156 166 174 162 152 147 144 159 140 131 131 123 112 98 83 82 118 137
251 244 258 277 277 285 255 224 136 100 99 111 138 146 155 147 143 141 142 145 147 148 150 155 158 147 145 165 170 135 136 152 188 190 158 158 157 157 146 131 132 126 123 112 101 95 53 88 94
260 259 271 281 284 276 242 186 136 121 117 124 129 141 160 151 145 143 146 152 150 156 159 159 161 156 150 156 160 143 142 149 175 211 152 120 126 137 126 136 128 127 124 119 109 105 68 78 71
260 280 281 267 281 277 266 244 207 156 155 148 144 147 158 146 148 138 143 146 146 152 149 140 131 138 134 138 179 142 143 143 174 176 142 130 136 134 137 141 137 136 128 117 103 108 4 73 11
228 250 255 260 262 278 287 328 32 91 132 170 181 171 158 149 150 145 142 143 141 133 133 135 128 117 122 126 98 82 102 137 138 162 151 136 138 140 142 146 148 145 137 134 131 165 200 169 227
239 247 256 261 267 271 275 268 21 44 46 137 163 152 145 142 141 137 137 137 136 142 146 132 122 112 121 132 125 116 114 134 136 157 162 146 145 149 157 155 153 151 150 155 157 184 216 188 212